GW0890 Weather Reports


Display with metric or nautical units.
time (UTC)temp
F
wind
direction
speed
MPH
gust
MPH
rain 1hr
in
rain 24hr
in
rain mn
in
humidity
%
barometer
mb
20260502163048 54 182 8.0 14.0 0.00 0.00 0.00 44 1015.6
20260502161544 53 211 3.0 10.0 0.00 0.00 0.00 51 1016.0
20260502151542 53 130 2.0 8.0 0.00 0.00 0.00 53 1016.2
20260502123001 37 157 0.0 5.0 0.00 0.00 0.00 96 1016.3
20260502121610 37 158 0.0 0.0 0.00 0.00 0.00 96 1016.4
20260502120104 36 159 0.0 1.0 0.00 0.00 0.00 96 1016.4
20260502114559 35 159 0.0 0.0 0.00 0.00 0.00 95 1016.3
20260502113059 35 159 0.0 0.0 0.00 0.00 0.00 95 1016.3
20260502113004 35 159 0.0 0.0 0.00 0.00 0.00 95 1016.3
20260502111600 35 159 0.0 1.0 0.00 0.00 0.00 95 1016.3
20260502110058 34 159 0.0 0.0 0.00 0.00 0.00 95 1016.1
20260502104554 34 159 0.0 0.0 0.00 0.00 0.00 95 1015.9
20260502103104 34 159 0.0 0.0 0.00 0.00 0.00 95 1015.8
20260502101611 34 159 0.0 0.0 0.00 0.00 0.00 94 1016.2
20260502071532 36 159 0.0 2.0 0.00 0.00 0.00 93 1015.8
20260502070029 36 159 0.0 1.0 0.00 0.00 0.00 93 1015.7
20260502064531 36 159 0.0 0.0 0.00 0.00 0.00 93 1015.8
20260502063025 37 159 0.0 0.0 0.00 0.00 0.00 92 1015.7
20260502061522 37 159 0.0 0.0 0.00 0.00 0.00 92 1016.0
20260502060020 37 159 0.0 0.0 0.00 0.00 0.00 92 1016.4
20260502054517 38 159 0.0 0.0 0.00 0.00 0.00 92 1016.1
20260502053013 38 159 0.0 1.0 0.00 0.00 0.00 92 1016.3
20260502051510 39 159 0.0 2.0 0.00 0.00 0.00 91 1016.4
20260502050009 39 157 0.0 0.0 0.00 0.00 0.00 90 1016.5
20260502044506 39 157 0.0 4.0 0.00 0.00 0.00 90 1016.4
20260502043002 41 157 0.0 0.0 0.00 0.00 0.00 88 1016.6
20260502041600 41 157 0.0 0.0 0.00 0.00 0.00 87 1016.6
20260502040055 42 157 0.0 0.0 0.00 0.00 0.00 86 1016.5
20260502034554 43 157 0.0 2.0 0.00 0.00 0.00 86 1016.3
20260502033056 43 157 2.0 5.0 0.00 0.00 0.00 85 1016.1
20260502031553 44 145 0.0 2.0 0.00 0.00 0.00 83 1016.1
20260502030023 46 145 0.0 2.0 0.00 0.00 0.00 81 1016.4
20260502024522 46 144 0.0 2.0 0.00 0.00 0.00 80 1016.3
20260502023019 47 144 0.0 1.0 0.00 0.00 0.00 78 1016.4
20260502021517 47 144 0.0 0.0 0.00 0.00 0.00 75 1016.1
20260502020020 48 144 0.0 5.0 0.00 0.00 0.00 73 1015.7
20260502014514 49 143 0.0 5.0 0.00 0.00 0.00 69 1015.5
20260502013012 50 143 3.0 6.0 0.00 0.00 0.00 66 1015.2
20260502011533 50 161 5.0 8.0 0.00 0.00 0.00 66 1015.0
20260502010010 51 148 2.0 12.0 0.00 0.00 0.00 66 1014.7
20260502004510 52 138 4.0 14.0 0.00 0.00 0.00 66 1014.5
20260502003007 53 136 6.0 11.0 0.00 0.00 0.00 68 1013.8
20260502001509 54 146 3.0 10.0 0.00 0.00 0.00 67 1013.7
20260502000010 54 148 4.0 11.0 0.00 0.00 0.00 66 1013.5
20260501234506 55 167 4.0 11.0 0.00 0.00 0.00 63 1013.2
20260501233005 56 132 1.0 6.0 0.00 0.00 0.00 62 1012.6
20260501231505 56 178 3.0 9.0 0.00 0.00 0.00 61 1012.4
20260501230002 56 163 1.0 9.0 0.00 0.00 0.00 62 1012.5
20260501224502 56 119 4.0 11.0 0.00 0.00 0.00 64 1012.6
20260501223118 56 117 5.0 8.0 0.00 0.00 0.00 65 1012.4
20260501221617 56 146 1.0 8.0 0.00 0.00 0.00 65 1012.4
20260501220101 56 143 4.0 9.0 0.00 0.00 0.00 65 1012.1
20260501214557 56 121 2.0 7.0 0.00 0.00 0.00 66 1012.3
20260501213055 56 108 2.0 9.0 0.00 0.00 0.00 66 1012.2
20260501211558 57 113 3.0 10.0 0.00 0.00 0.00 61 1012.0
20260501210053 58 97 2.0 15.0 0.00 0.00 0.00 59 1012.1
20260501204553 59 97 4.0 15.0 0.00 0.00 0.00 59 1011.8
20260501203051 59 131 9.0 18.0 0.00 0.00 0.00 59 1011.9
20260501201551 59 80 6.0 16.0 0.00 0.00 0.00 58 1011.8
20260501200049 61 165 7.0 18.0 0.00 0.00 0.00 56 1011.5
20260501194551 61 82 6.0 13.0 0.00 0.00 0.00 55 1011.1
20260501193047 61 128 4.0 10.0 0.00 0.00 0.00 55 1010.9
20260501191549 62 167 5.0 12.0 0.00 0.00 0.00 54 1010.9
20260501190058 62 98 2.0 10.0 0.00 0.00 0.00 53 1010.9
20260501184547 62 52 6.0 10.0 0.00 0.00 0.00 51 1011.0
20260501183020 63 62 6.0 15.0 0.00 0.00 0.00 50 1010.7
20260501181514 64 11 9.0 19.0 0.00 0.00 0.00 47 1010.7
20260501180011 65 360 7.0 23.0 0.00 0.00 0.00 47 1010.9
20260501174514 65 30 11.0 21.0 0.00 0.00 0.00 47 1011.0